Location: Newark
(44.6028°N, 124.0883°W)
Time: 20:45:35
(UTC+00:00)

N. Korean satellite - Visible Passes

Search period start: 14 October 2019 00:00
Search period end: 24 October 2019 00:00
Orbit: 455 x 508 km, 97.2° (Epoch: 14 October)

Date Brightness Start Highest point End Pass type
(mag) Time Alt. Az. Time Alt. Az. Time Alt. Az.
14 Oct 9.9 02:16:23 10° SW 02:18:46 18° W 02:21:10 10° NW visible
14 Oct 9.0 13:39:50 10° NE 13:42:58 28° E 13:46:09 10° SSE visible
15 Oct 10.1 13:15:26 10° NE 13:17:32 15° E 13:19:39 10° SE visible
17 Oct 10.5 02:35:30 10° WSW 02:36:26 11° W 02:37:21 10° WNW visible
17 Oct 7.8 13:57:04 10° NNE 14:00:33 48° E 14:04:05 10° S visible
18 Oct 9.5 02:08:13 10° SSW 02:10:56 22° W 02:13:39 10° NW visible
18 Oct 9.4 13:32:12 10° NE 13:35:10 24° E 13:38:09 10° SSE visible
19 Oct 10.3 13:08:07 10° ENE 13:09:42 12° E 13:11:16 10° ESE visible
21 Oct 10.1 02:26:46 10° WSW 02:28:32 13° W 02:30:19 10° WNW visible
21 Oct 8.3 13:49:19 10° NNE 13:52:44 38° E 13:56:11 10° SSE visible
22 Oct 9.1 02:00:06 10° SSW 02:03:02 27° W 02:06:02 10° NW visible
22 Oct 9.7 13:24:35 10° NE 13:27:19 20° E 13:30:03 10° SE visible
23 Oct 10.6 13:01:25 10° E 13:01:48 10° E 13:02:10 10° E visible
